Regional Weather Roundup
Issued by NWS Sioux Falls, SD

Home | Current Version | Previous Version | Graphics & Text | Print | Product List | Glossary Off
Versions: 1 2 3 4 5 6 7 8 9 10 11 12 13 14 15 16 17 18 19 20 21 22 23 24 25 26 27 28 29 30 31 32 33 34 35 36 37 38 39 40 41 42 43 44 45 46 47 48 49 50

000
ASUS43 KFSD 071202
RWRFSD

WEATHER ROUNDUP FOR SE SOUTH DAKOTA/SW MINNESOTA/NW IOWA
NATIONAL WEATHER SERVICE SIOUX FALLS SD
700 AM CDT TUE JUL 07 2015

NOTE: "FAIR" INDICATES FEW OR NO CLOUDS BELOW 12,000 FEET WITH NO
SIGNIFICANT WEATHER AND OR OBSTRUCTIONS TO VISIBILITY.


SDZ038>040-050-052>070-071300-
SOUTHEAST SOUTH DAKOTA

CITY           SKY/WX    TMP DP  RH WIND       PRES   REMARKS
BROOKINGS      SUNNY     50  45  81 N5        30.21S
CHAMBERLAIN    NOT AVBL
HURON          CLEAR     54  52  93 NE5       30.19S FOG
6HR MIN TEMP:  50; 6HR MAX TEMP:  58;

MADISON        FAIR      48  48 100 N7        30.19S
MITCHELL       CLEAR     54  53  97 CALM      30.19S FOG
6HR MIN TEMP:  53; 6HR MAX TEMP:  59;

SIOUX FALLS    PTCLDY    53  49  86 N6        30.18R
6HR MIN TEMP:  50; 6HR MAX TEMP:  56;

WINNER         FAIR      58  53  84 SE5       30.18S HAZE
YANKTON        CLEAR     54  48  82 CALM      30.17S
$$

MNZ071-072-080-081-089-090-097-098-071300-
SOUTHWEST MINNESOTA

CITY           SKY/WX    TMP DP  RH WIND       PRES   REMARKS
FAIRMONT       SUNNY     52  45  76 N10       30.14R
JACKSON        SUNNY     52  48  87 N5        30.16R
MARSHALL       SUNNY     50  45  81 NW6         N/A
6HR MIN TEMP:  46; 6HR MAX TEMP:  54;

MONTEVIDEO     SUNNY     54  50  87 N5          N/A
PIPESTONE      SUNNY     52  46  82 N3        30.18S
REDWOOD FALLS  SUNNY     52  48  86 N6        30.17S
TRACY          SUNNY     51  49  93 NW8       30.19R
WINDOM         SUNNY     52  46  82 N10       30.16S
WORTHINGTON    SUNNY     50  45  81 N8        30.17R
$$

IAZ001>003-012>014-020>022-031-032-NEZ013-014-SDZ071-071300-
NORTHWEST IOWA

CITY           SKY/WX    TMP DP  RH WIND       PRES   REMARKS
DENISON        SUNNY     54  48  82 N7        30.12R
ESTHERVILLE    SUNNY     50  47  89 N9        30.14R
SIOUX CITY     CLEAR     55  49  80 N7        30.17R
6HR MIN TEMP:  53; 6HR MAX TEMP:  59;

SPENCER        SUNNY     50  46  86 NW5       30.16R
6HR MIN TEMP:  45; 6HR MAX TEMP:  53;

$$

ABBREVIATIONS USED IN REMARKS
   TC - TEMPERATURE IN CELSIUS
  WCI - WIND CHILL INDEX
   HX - HEAT INDEX
  VSB - VISIBILITY




USA.gov is the U.S. government's official web portal to all federal, state and local government web resources and services.